Year,Month,Day,Hour,Minute,Value (Times are PST for temperature in C)
2006,02,21,00,00,2.70
2006,02,21,00,01,2.70
2006,02,21,00,02,2.70
2006,02,21,00,03,2.70
2006,02,21,00,04,2.60
2006,02,21,00,05,2.60
2006,02,21,00,06,2.60
2006,02,21,00,07,2.60
2006,02,21,00,08,2.60
2006,02,21,00,09,2.60
2006,02,21,00,10,2.60
2006,02,21,00,11,2.60
2006,02,21,00,12,2.60
2006,02,21,00,13,2.50
2006,02,21,00,14,2.50
2006,02,21,00,15,2.50
2006,02,21,00,16,2.50
2006,02,21,00,17,2.50
2006,02,21,00,18,2.50
2006,02,21,00,19,2.50
2006,02,21,00,20,2.50
2006,02,21,00,21,2.50
2006,02,21,00,22,2.50
2006,02,21,00,23,2.50
2006,02,21,00,24,2.50
2006,02,21,00,25,2.50
2006,02,21,00,26,2.50
2006,02,21,00,27,2.40
2006,02,21,00,28,2.40
2006,02,21,00,29,2.40
2006,02,21,00,30,2.40
2006,02,21,00,31,2.40
2006,02,21,00,32,2.40
2006,02,21,00,33,2.40
2006,02,21,00,34,2.40
2006,02,21,00,35,2.40
2006,02,21,00,36,2.40
2006,02,21,00,37,2.40
2006,02,21,00,38,2.40
2006,02,21,00,39,2.40
2006,02,21,00,40,2.40
2006,02,21,00,41,2.40
2006,02,21,00,42,2.30
2006,02,21,00,43,2.30
2006,02,21,00,44,2.30
2006,02,21,00,45,2.30
2006,02,21,00,46,2.30
2006,02,21,00,47,2.30
2006,02,21,00,48,2.30
2006,02,21,00,49,2.30
2006,02,21,00,50,2.30
2006,02,21,00,51,2.20
2006,02,21,00,52,2.20
2006,02,21,00,53,2.20
2006,02,21,00,54,2.20
2006,02,21,00,55,2.20
2006,02,21,00,56,2.20
2006,02,21,00,57,2.20
2006,02,21,00,58,2.20
2006,02,21,00,59,2.20
2006,02,21,01,00,2.20
2006,02,21,01,01,2.20
2006,02,21,01,02,2.20
2006,02,21,01,03,2.20
2006,02,21,01,04,2.20
2006,02,21,01,05,2.20
2006,02,21,01,06,2.20
2006,02,21,01,07,2.20
2006,02,21,01,08,2.20
2006,02,21,01,09,2.20
2006,02,21,01,10,2.20
2006,02,21,01,11,2.20
2006,02,21,01,12,2.20
2006,02,21,01,13,2.20
2006,02,21,01,14,2.20
2006,02,21,01,15,2.20
2006,02,21,01,16,2.20
2006,02,21,01,17,2.20
2006,02,21,01,18,2.20
2006,02,21,01,19,2.20
2006,02,21,01,20,2.20
2006,02,21,01,21,2.20
2006,02,21,01,22,2.20
2006,02,21,01,23,2.20
2006,02,21,01,24,2.20
2006,02,21,01,25,2.20
2006,02,21,01,26,2.20
2006,02,21,01,27,2.20
2006,02,21,01,28,2.10
2006,02,21,01,29,2.10
2006,02,21,01,30,2.10
2006,02,21,01,31,2.10
2006,02,21,01,32,2.10
2006,02,21,01,33,2.00
2006,02,21,01,34,2.00
2006,02,21,01,35,2.00
2006,02,21,01,36,2.00
2006,02,21,01,37,1.90
2006,02,21,01,38,1.90
2006,02,21,01,39,1.90
2006,02,21,01,40,1.90
2006,02,21,01,41,1.90
2006,02,21,01,42,1.90
2006,02,21,01,43,1.90
2006,02,21,01,44,1.80
2006,02,21,01,45,1.80
2006,02,21,01,46,1.80
2006,02,21,01,47,1.80
2006,02,21,01,48,1.80
2006,02,21,01,49,1.80
2006,02,21,01,50,1.80
2006,02,21,01,51,1.80
2006,02,21,01,52,1.80
2006,02,21,01,53,1.70
2006,02,21,01,54,1.70
2006,02,21,01,55,1.70
2006,02,21,01,56,1.70
2006,02,21,01,57,1.70
2006,02,21,01,58,1.70
2006,02,21,01,59,1.60
2006,02,21,02,00,1.60
2006,02,21,02,01,1.60
2006,02,21,02,02,1.50
2006,02,21,02,03,1.50
2006,02,21,02,04,1.50
2006,02,21,02,05,1.50
2006,02,21,02,06,1.40
2006,02,21,02,07,1.40
2006,02,21,02,08,1.40
2006,02,21,02,09,1.40
2006,02,21,02,10,1.30
2006,02,21,02,11,1.30
2006,02,21,02,12,1.30
2006,02,21,02,13,1.30
2006,02,21,02,14,1.30
2006,02,21,02,15,1.30
2006,02,21,02,16,1.30
2006,02,21,02,17,1.20
2006,02,21,02,18,1.20
2006,02,21,02,19,1.20
2006,02,21,02,20,1.10
2006,02,21,02,21,1.10
2006,02,21,02,22,1.10
2006,02,21,02,23,1.00
2006,02,21,02,24,1.00
2006,02,21,02,25,1.00
2006,02,21,02,26,0.90
2006,02,21,02,27,0.90
2006,02,21,02,28,0.90
2006,02,21,02,29,0.80
2006,02,21,02,30,0.80
2006,02,21,02,31,0.80
2006,02,21,02,32,0.80
2006,02,21,02,33,0.80
2006,02,21,02,34,0.80
2006,02,21,02,35,0.80
2006,02,21,02,36,0.80
2006,02,21,02,37,0.70
2006,02,21,02,38,0.70
2006,02,21,02,39,0.70
2006,02,21,02,40,0.70
2006,02,21,02,41,0.60
2006,02,21,02,42,0.60
2006,02,21,02,43,0.60
2006,02,21,02,44,0.50
2006,02,21,02,45,0.50
2006,02,21,02,46,0.40
2006,02,21,02,47,0.40
2006,02,21,02,48,0.40
2006,02,21,02,49,0.40
2006,02,21,02,50,0.30
2006,02,21,02,51,0.20
2006,02,21,02,52,0.20
2006,02,21,02,53,0.20
2006,02,21,02,54,0.10
2006,02,21,02,55,0.10
2006,02,21,02,56,0.10
2006,02,21,02,57,0.10
2006,02,21,02,58,0.10
2006,02,21,02,59,0.10
2006,02,21,03,00,0.10
2006,02,21,03,01,0.10
2006,02,21,03,02,0.10
2006,02,21,03,03,0.10
2006,02,21,03,04,0.10
2006,02,21,03,05,0.10
2006,02,21,03,06,0.00
2006,02,21,03,07,-0.10
2006,02,21,03,08,-0.10
2006,02,21,03,09,-0.10
2006,02,21,03,10,-0.10
2006,02,21,03,11,-0.10
2006,02,21,03,12,-0.10
2006,02,21,03,13,-0.10
2006,02,21,03,14,-0.10
2006,02,21,03,15,-0.10
2006,02,21,03,16,-0.10
2006,02,21,03,17,-0.20
2006,02,21,03,18,-0.20
2006,02,21,03,19,-0.20
2006,02,21,03,20,-0.20
2006,02,21,03,21,-0.30
2006,02,21,03,22,-0.30
2006,02,21,03,23,-0.30
2006,02,21,03,24,-0.40
2006,02,21,03,25,-0.40
2006,02,21,03,26,-0.40
2006,02,21,03,27,-0.40
2006,02,21,03,28,-0.40
2006,02,21,03,29,-0.60
2006,02,21,03,30,-0.40
2006,02,21,03,31,-0.40
2006,02,21,03,32,-0.40
2006,02,21,03,33,-0.40
2006,02,21,03,34,-0.50
2006,02,21,03,35,-0.60
2006,02,21,03,36,-0.60
2006,02,21,03,37,-0.60
2006,02,21,03,38,-0.70
2006,02,21,03,39,-0.70
2006,02,21,03,40,-0.70
2006,02,21,03,41,-0.70
2006,02,21,03,42,-0.70
2006,02,21,03,43,-0.80
2006,02,21,03,44,-0.80
2006,02,21,03,45,-0.80
2006,02,21,03,46,-0.80
2006,02,21,03,47,-0.90
2006,02,21,03,48,-0.90
2006,02,21,03,49,-0.90
2006,02,21,03,50,-0.90
2006,02,21,03,51,-0.90
2006,02,21,03,52,-0.90
2006,02,21,03,53,-0.90
2006,02,21,03,54,-0.90
2006,02,21,03,55,-0.90
2006,02,21,03,56,-0.90
2006,02,21,03,57,-0.90
2006,02,21,03,58,-0.90
2006,02,21,03,59,-0.90
2006,02,21,04,00,-0.90
2006,02,21,04,01,-0.90
2006,02,21,04,02,-0.90
2006,02,21,04,03,-1.00
2006,02,21,04,04,-1.10
2006,02,21,04,05,-1.10
2006,02,21,04,06,-1.10
2006,02,21,04,07,-1.10
2006,02,21,04,08,-1.10
2006,02,21,04,09,-1.10
2006,02,21,04,10,-1.10
2006,02,21,04,11,-1.10
2006,02,21,04,12,-1.10
2006,02,21,04,13,-1.10
2006,02,21,04,14,-1.10
2006,02,21,04,15,-1.10
2006,02,21,04,16,-1.10
2006,02,21,04,17,-1.10
2006,02,21,04,18,-1.00
2006,02,21,04,19,-0.90
2006,02,21,04,20,-0.90
2006,02,21,04,21,-0.90
2006,02,21,04,22,-0.90
2006,02,21,04,23,-0.90
2006,02,21,04,24,-0.80
2006,02,21,04,25,-0.80
2006,02,21,04,26,-0.80
2006,02,21,04,27,-0.90
2006,02,21,04,28,-0.90
2006,02,21,04,29,-0.90
2006,02,21,04,30,-0.90
2006,02,21,04,31,-0.90
2006,02,21,04,32,-0.90
2006,02,21,04,33,-0.90
2006,02,21,04,34,-0.90
2006,02,21,04,35,-0.90
2006,02,21,04,36,-0.90
2006,02,21,04,37,-0.90
2006,02,21,04,38,-1.00
2006,02,21,04,39,-1.10
2006,02,21,04,40,-1.10
2006,02,21,04,41,-1.10
2006,02,21,04,42,-1.10
2006,02,21,04,43,-1.10
2006,02,21,04,44,-1.10
2006,02,21,04,45,-1.10
2006,02,21,04,46,-1.10
2006,02,21,04,47,-1.10
2006,02,21,04,48,-1.10
2006,02,21,04,49,-1.10
2006,02,21,04,50,-1.10
2006,02,21,04,51,-1.10
2006,02,21,04,52,-1.10
2006,02,21,04,53,-1.10
2006,02,21,04,54,-1.10
2006,02,21,04,55,-1.10
2006,02,21,04,56,-1.10
2006,02,21,04,57,-1.10
2006,02,21,04,58,-1.10
2006,02,21,04,59,-1.10
2006,02,21,05,00,-1.10
2006,02,21,05,01,-1.20
2006,02,21,05,02,-1.20
2006,02,21,05,03,-1.20
2006,02,21,05,04,-1.20
2006,02,21,05,05,-1.20
2006,02,21,05,06,-1.20
2006,02,21,05,07,-1.20
2006,02,21,05,08,-1.20
2006,02,21,05,09,-1.10
2006,02,21,05,10,-1.10
2006,02,21,05,11,-1.10
2006,02,21,05,12,-1.10
2006,02,21,05,13,-1.10
2006,02,21,05,14,-1.10
2006,02,21,05,15,-1.10
2006,02,21,05,16,-1.10
2006,02,21,05,17,-1.10
2006,02,21,05,18,-1.10
2006,02,21,05,19,-1.10
2006,02,21,05,20,-1.00
2006,02,21,05,21,-0.90
2006,02,21,05,22,-0.90
2006,02,21,05,23,-0.90
2006,02,21,05,24,-0.90
2006,02,21,05,25,-0.90
2006,02,21,05,26,-0.90
2006,02,21,05,27,-0.80
2006,02,21,05,28,-0.80
2006,02,21,05,29,-0.80
2006,02,21,05,30,-0.80
2006,02,21,05,31,-0.70
2006,02,21,05,32,-0.70
2006,02,21,05,33,-0.70
2006,02,21,05,34,-0.70
2006,02,21,05,35,-0.60
2006,02,21,05,36,-0.60
2006,02,21,05,37,-0.60
2006,02,21,05,38,-0.60
2006,02,21,05,39,-0.60
2006,02,21,05,40,-0.60
2006,02,21,05,41,-0.50
2006,02,21,05,42,-0.40
2006,02,21,05,43,-0.40
2006,02,21,05,44,-0.40
2006,02,21,05,45,-0.40
2006,02,21,05,46,-0.40
2006,02,21,05,47,-0.40
2006,02,21,05,48,-0.40
2006,02,21,05,49,-0.40
2006,02,21,05,50,-0.40
2006,02,21,05,51,-0.40
2006,02,21,05,52,-0.40
2006,02,21,05,53,-0.40
2006,02,21,05,54,-0.40
2006,02,21,05,55,-0.40
2006,02,21,05,56,-0.30
2006,02,21,05,57,-0.30
2006,02,21,05,58,-0.30
2006,02,21,05,59,-0.30
2006,02,21,06,00,-0.30
2006,02,21,06,01,-0.30
2006,02,21,06,02,-0.30
2006,02,21,06,03,-0.30
2006,02,21,06,04,-0.30
2006,02,21,06,05,-0.30
2006,02,21,06,06,-0.30
2006,02,21,06,07,-0.30
2006,02,21,06,08,-0.40
2006,02,21,06,09,-0.40
2006,02,21,06,10,-0.30
2006,02,21,06,11,-0.30
2006,02,21,06,12,-0.30
2006,02,21,06,13,-0.30
2006,02,21,06,14,-0.30
2006,02,21,06,15,-0.30
2006,02,21,06,16,-0.30
2006,02,21,06,17,-0.30
2006,02,21,06,18,-0.30
2006,02,21,06,19,-0.30
2006,02,21,06,20,-0.30
2006,02,21,06,21,-0.30
2006,02,21,06,22,-0.30
2006,02,21,06,23,-0.30
2006,02,21,06,24,-0.30
2006,02,21,06,25,-0.30
2006,02,21,06,26,-0.30
2006,02,21,06,27,-0.30
2006,02,21,06,28,-0.30
2006,02,21,06,29,-0.30
2006,02,21,06,30,-0.40
2006,02,21,06,31,-0.40
2006,02,21,06,32,-0.40
2006,02,21,06,33,-0.40
2006,02,21,06,34,-0.40
2006,02,21,06,35,-0.40
2006,02,21,06,36,-0.40
2006,02,21,06,37,-0.40
2006,02,21,06,38,-0.40
2006,02,21,06,39,-0.40
2006,02,21,06,40,-0.40
2006,02,21,06,41,-0.40
2006,02,21,06,42,-0.40
2006,02,21,06,43,-0.40
2006,02,21,06,44,-0.40
2006,02,21,06,45,-0.40
2006,02,21,06,46,-0.40
2006,02,21,06,47,-0.40
2006,02,21,06,48,-0.50
2006,02,21,06,49,-0.60
2006,02,21,06,50,-0.60
2006,02,21,06,51,-0.60
2006,02,21,06,52,-0.60
2006,02,21,06,53,-0.60
2006,02,21,06,54,-0.60
2006,02,21,06,55,-0.60
2006,02,21,06,56,-0.60
2006,02,21,06,57,-0.60
2006,02,21,06,58,-0.60
2006,02,21,06,59,-0.60
2006,02,21,07,00,-0.60
2006,02,21,07,01,-0.60
2006,02,21,07,02,-0.60
2006,02,21,07,03,-0.70
2006,02,21,07,04,-0.70
2006,02,21,07,05,-0.70
2006,02,21,07,06,-0.70
2006,02,21,07,07,-0.70
2006,02,21,07,08,-0.70
2006,02,21,07,09,-0.70
2006,02,21,07,10,-0.70
2006,02,21,07,11,-0.70
2006,02,21,07,12,-0.70
2006,02,21,07,13,-0.80
2006,02,21,07,14,-0.80
2006,02,21,07,15,-0.80
2006,02,21,07,16,-0.80
2006,02,21,07,17,-0.80
2006,02,21,07,18,-0.80
2006,02,21,07,19,-0.80
2006,02,21,07,20,-0.80
2006,02,21,07,21,-0.80
2006,02,21,07,22,-0.70
2006,02,21,07,23,-0.70
2006,02,21,07,24,-0.60
2006,02,21,07,25,-0.60
2006,02,21,07,26,-0.60
2006,02,21,07,27,-0.60
2006,02,21,07,28,-0.60
2006,02,21,07,29,-0.60
2006,02,21,07,30,-0.60
2006,02,21,07,31,-0.60
2006,02,21,07,32,-0.40
2006,02,21,07,33,-0.40
2006,02,21,07,34,-0.40
2006,02,21,07,35,-0.40
2006,02,21,07,36,-0.40
2006,02,21,07,37,-0.40
2006,02,21,07,38,-0.40
2006,02,21,07,39,-0.40
2006,02,21,07,40,-0.40
2006,02,21,07,41,-0.40
2006,02,21,07,42,-0.40
2006,02,21,07,43,-0.40
2006,02,21,07,44,-0.40
2006,02,21,07,45,-0.40
2006,02,21,07,46,-0.40
2006,02,21,07,47,-0.40
2006,02,21,07,48,-0.40
2006,02,21,07,49,-0.40
2006,02,21,07,50,-0.40
2006,02,21,07,51,-0.40
2006,02,21,07,52,-0.40
2006,02,21,07,53,-0.40
2006,02,21,07,54,-0.40
2006,02,21,07,55,-0.40
2006,02,21,07,56,-0.40
2006,02,21,07,57,-0.40
2006,02,21,07,58,-0.40
2006,02,21,07,59,-0.40
2006,02,21,08,00,-0.40
2006,02,21,08,01,-0.40
2006,02,21,08,02,-0.40
2006,02,21,08,03,-0.40
2006,02,21,08,04,-0.40
2006,02,21,08,05,-0.40
2006,02,21,08,06,-0.40
2006,02,21,08,07,-0.40
2006,02,21,08,08,-0.40
2006,02,21,08,09,-0.40
2006,02,21,08,10,-0.40
2006,02,21,08,11,-0.30
2006,02,21,08,12,-0.30
2006,02,21,08,13,-0.20
2006,02,21,08,14,-0.10
2006,02,21,08,15,-0.10
2006,02,21,08,16,0.00
2006,02,21,08,17,0.10
2006,02,21,08,18,0.10
2006,02,21,08,19,0.20
2006,02,21,08,20,0.20
2006,02,21,08,21,0.30
2006,02,21,08,22,0.30
2006,02,21,08,23,0.30
2006,02,21,08,24,0.30
2006,02,21,08,25,0.30
2006,02,21,08,26,0.30
2006,02,21,08,27,0.40
2006,02,21,08,28,0.40
2006,02,21,08,29,0.40
2006,02,21,08,30,0.40
2006,02,21,08,31,0.40
2006,02,21,08,32,0.40
2006,02,21,08,33,0.40
2006,02,21,08,34,0.50
2006,02,21,08,35,0.50
2006,02,21,08,36,0.50
2006,02,21,08,37,0.50
2006,02,21,08,38,0.60
2006,02,21,08,39,0.60
2006,02,21,08,40,0.70
2006,02,21,08,41,0.70
2006,02,21,08,42,0.80
2006,02,21,08,43,0.80
2006,02,21,08,44,0.80
2006,02,21,08,45,0.90
2006,02,21,08,46,1.00
2006,02,21,08,47,1.00
2006,02,21,08,48,1.10
2006,02,21,08,49,1.10
2006,02,21,08,50,1.20
2006,02,21,08,51,1.20
2006,02,21,08,52,1.30
2006,02,21,08,53,1.30
2006,02,21,08,54,1.30
2006,02,21,08,55,1.40
2006,02,21,08,56,1.50
2006,02,21,08,57,1.60
2006,02,21,08,58,1.70
2006,02,21,08,59,1.80
2006,02,21,09,00,1.80
2006,02,21,09,01,2.00
2006,02,21,09,02,2.00
2006,02,21,09,03,2.10
2006,02,21,09,04,2.20
2006,02,21,09,05,2.20
2006,02,21,09,06,2.30
2006,02,21,09,07,2.40
2006,02,21,09,08,2.50
2006,02,21,09,09,2.50
2006,02,21,09,10,2.60
2006,02,21,09,11,2.60
2006,02,21,09,12,2.70
2006,02,21,09,13,2.70
2006,02,21,09,14,2.70
2006,02,21,09,15,2.70
2006,02,21,09,16,2.70
2006,02,21,09,17,2.70
2006,02,21,09,18,2.70
2006,02,21,09,19,2.70
2006,02,21,09,20,2.70
2006,02,21,09,21,2.80
2006,02,21,09,22,2.80
2006,02,21,09,23,2.90
2006,02,21,09,24,2.90
2006,02,21,09,25,2.90
2006,02,21,09,26,2.90
2006,02,21,09,27,2.90
2006,02,21,09,28,2.90
2006,02,21,09,29,3.00
2006,02,21,09,30,3.10
2006,02,21,09,31,3.10
2006,02,21,09,32,3.10
2006,02,21,09,33,3.10
2006,02,21,09,34,3.10
2006,02,21,09,35,3.10
2006,02,21,09,36,3.10
2006,02,21,09,37,3.10
2006,02,21,09,38,3.10
2006,02,21,09,39,3.10
2006,02,21,09,40,3.20
2006,02,21,09,41,3.20
2006,02,21,09,42,3.20
2006,02,21,09,43,3.30
2006,02,21,09,44,3.30
2006,02,21,09,45,3.30
2006,02,21,09,46,3.40
2006,02,21,09,47,3.50
2006,02,21,09,48,3.50
2006,02,21,09,49,3.60
2006,02,21,09,50,3.70
2006,02,21,09,51,3.80
2006,02,21,09,52,3.80
2006,02,21,09,53,3.80
2006,02,21,09,54,3.90
2006,02,21,09,55,4.00
2006,02,21,09,56,4.00
2006,02,21,09,57,4.00
2006,02,21,09,58,4.10
2006,02,21,09,59,4.10
2006,02,21,10,00,4.20
2006,02,21,10,01,4.20
2006,02,21,10,02,4.20
2006,02,21,10,03,4.30
2006,02,21,10,04,4.30
2006,02,21,10,05,4.40
2006,02,21,10,06,4.40
2006,02,21,10,07,4.50
2006,02,21,10,08,4.50
2006,02,21,10,09,4.50
2006,02,21,10,10,4.60
2006,02,21,10,11,4.60
2006,02,21,10,12,4.60
2006,02,21,10,13,4.60
2006,02,21,10,14,4.70
2006,02,21,10,15,4.80
2006,02,21,10,16,4.80
2006,02,21,10,17,4.90
2006,02,21,10,18,4.90
2006,02,21,10,19,5.00
2006,02,21,10,20,5.10
2006,02,21,10,21,5.10
2006,02,21,10,22,5.10
2006,02,21,10,23,5.10
2006,02,21,10,24,5.10
2006,02,21,10,25,5.20
2006,02,21,10,26,5.30
2006,02,21,10,27,5.30
2006,02,21,10,28,5.30
2006,02,21,10,29,5.40
2006,02,21,10,30,5.50
2006,02,21,10,31,5.50
2006,02,21,10,32,5.60
2006,02,21,10,33,5.70
2006,02,21,10,34,5.70
2006,02,21,10,35,5.70
2006,02,21,10,36,5.80
2006,02,21,10,37,5.80
2006,02,21,10,38,5.90
2006,02,21,10,39,5.90
2006,02,21,10,40,6.00
2006,02,21,10,41,6.10
2006,02,21,10,42,6.20
2006,02,21,10,43,6.20
2006,02,21,10,44,6.30
2006,02,21,10,45,6.30
2006,02,21,10,46,6.40
2006,02,21,10,47,6.40
2006,02,21,10,48,6.40
2006,02,21,10,49,6.40
2006,02,21,10,50,6.50
2006,02,21,10,51,6.60
2006,02,21,10,52,6.60
2006,02,21,10,53,6.60
2006,02,21,10,54,6.70
2006,02,21,10,55,6.80
2006,02,21,10,56,6.80
2006,02,21,10,57,6.90
2006,02,21,10,58,7.00
2006,02,21,10,59,7.10
2006,02,21,11,00,7.10
2006,02,21,11,01,7.20
2006,02,21,11,02,7.30
2006,02,21,11,03,7.30
2006,02,21,11,04,7.30
2006,02,21,11,05,7.40
2006,02,21,11,06,7.40
2006,02,21,11,07,7.40
2006,02,21,11,08,7.40
2006,02,21,11,09,7.50
2006,02,21,11,10,7.50
2006,02,21,11,11,7.50
2006,02,21,11,12,7.60
2006,02,21,11,13,7.60
2006,02,21,11,14,7.70
2006,02,21,11,15,7.70
2006,02,21,11,16,7.80
2006,02,21,11,17,7.80
2006,02,21,11,18,7.80
2006,02,21,11,19,7.80
2006,02,21,11,20,7.90
2006,02,21,11,21,7.90
2006,02,21,11,22,8.00
2006,02,21,11,23,8.00
2006,02,21,11,24,8.00
2006,02,21,11,25,8.10
2006,02,21,11,26,8.10
2006,02,21,11,27,8.10
2006,02,21,11,28,8.10
2006,02,21,11,29,8.10
2006,02,21,11,30,8.20
2006,02,21,11,31,8.20
2006,02,21,11,32,8.20
2006,02,21,11,33,8.20
2006,02,21,11,34,8.30
2006,02,21,11,35,8.30
2006,02,21,11,36,8.20
2006,02,21,11,37,8.20
2006,02,21,11,38,8.10
2006,02,21,11,39,8.10
2006,02,21,11,40,8.00
2006,02,21,11,41,8.00
2006,02,21,11,42,8.00
2006,02,21,11,43,8.00
2006,02,21,11,44,7.90
2006,02,21,11,45,7.90
2006,02,21,11,46,7.90
2006,02,21,11,47,7.90
2006,02,21,11,48,7.90
2006,02,21,11,49,7.90
2006,02,21,11,50,7.90
2006,02,21,11,51,7.80
2006,02,21,11,52,7.80
2006,02,21,11,53,7.80
2006,02,21,11,54,7.80
2006,02,21,11,55,7.80
2006,02,21,11,56,7.80
2006,02,21,11,57,7.80
2006,02,21,11,58,7.80
2006,02,21,11,59,7.80
2006,02,21,12,00,7.80
2006,02,21,12,01,7.80
2006,02,21,12,02,7.80
2006,02,21,12,03,7.90
2006,02,21,12,04,7.90
2006,02,21,12,05,8.00
2006,02,21,12,06,8.10
2006,02,21,12,07,8.10
2006,02,21,12,08,8.10
2006,02,21,12,09,8.10
2006,02,21,12,10,8.20
2006,02,21,12,11,8.20
2006,02,21,12,12,8.20
2006,02,21,12,13,8.20
2006,02,21,12,14,8.30
2006,02,21,12,15,8.40
2006,02,21,12,16,8.50
2006,02,21,12,17,8.50
2006,02,21,12,18,8.60
2006,02,21,12,19,8.70
2006,02,21,12,20,8.70
2006,02,21,12,21,8.70
2006,02,21,12,22,8.70
2006,02,21,12,23,8.70
2006,02,21,12,24,8.70
2006,02,21,12,25,8.70
2006,02,21,12,26,8.70
2006,02,21,12,27,8.70
2006,02,21,12,28,8.70
2006,02,21,12,29,8.70
2006,02,21,12,30,8.70
2006,02,21,12,31,8.70
2006,02,21,12,32,8.70
2006,02,21,12,33,8.80
2006,02,21,12,34,8.80
2006,02,21,12,35,8.90
2006,02,21,12,36,8.90
2006,02,21,12,37,8.90
2006,02,21,12,38,8.90
2006,02,21,12,39,8.90
2006,02,21,12,40,8.90
2006,02,21,12,41,8.90
2006,02,21,12,42,8.90
2006,02,21,12,43,9.00
2006,02,21,12,44,9.00
2006,02,21,12,45,9.00
2006,02,21,12,46,9.00
2006,02,21,12,47,9.00
2006,02,21,12,48,9.00
2006,02,21,12,49,9.00
2006,02,21,12,50,9.00
2006,02,21,12,51,9.00
2006,02,21,12,52,9.00
2006,02,21,12,53,9.00
2006,02,21,12,54,9.00
2006,02,21,12,55,9.00
2006,02,21,12,56,9.00
2006,02,21,12,57,9.00
2006,02,21,12,58,8.90
2006,02,21,12,59,8.90
2006,02,21,13,00,8.90
2006,02,21,13,01,8.90
2006,02,21,13,02,8.90
2006,02,21,13,03,8.80
2006,02,21,13,04,8.80
2006,02,21,13,05,8.70
2006,02,21,13,06,8.70
2006,02,21,13,07,8.60
2006,02,21,13,08,8.60
2006,02,21,13,09,8.70
2006,02,21,13,10,8.70
2006,02,21,13,11,8.70
2006,02,21,13,12,8.60
2006,02,21,13,13,8.60
2006,02,21,13,14,8.60
2006,02,21,13,15,8.60
2006,02,21,13,16,8.50
2006,02,21,13,17,8.50
2006,02,21,13,18,8.50
2006,02,21,13,19,8.50
2006,02,21,13,20,8.60
2006,02,21,13,21,8.60
2006,02,21,13,22,8.60
2006,02,21,13,23,8.60
2006,02,21,13,24,8.60
2006,02,21,13,25,8.60
2006,02,21,13,26,8.50
2006,02,21,13,27,8.50
2006,02,21,13,28,8.60
2006,02,21,13,29,8.60
2006,02,21,13,30,8.60
2006,02,21,13,31,8.60
2006,02,21,13,32,8.60
2006,02,21,13,33,8.50
2006,02,21,13,34,8.60
2006,02,21,13,35,8.60
2006,02,21,13,36,8.60
2006,02,21,13,37,8.60
2006,02,21,13,38,8.60
2006,02,21,13,39,8.60
2006,02,21,13,40,8.50
2006,02,21,13,41,8.50
2006,02,21,13,42,8.50
2006,02,21,13,43,8.50
2006,02,21,13,44,8.50
2006,02,21,13,45,8.40
2006,02,21,13,46,8.40
2006,02,21,13,47,8.40
2006,02,21,13,48,8.40
2006,02,21,13,49,8.30
2006,02,21,13,50,8.30
2006,02,21,13,51,8.30
2006,02,21,13,52,8.30
2006,02,21,13,53,8.20
2006,02,21,13,54,8.20
2006,02,21,13,55,8.30
2006,02,21,13,56,8.30
2006,02,21,13,57,8.30
2006,02,21,13,58,8.30
2006,02,21,13,59,8.40
2006,02,21,14,00,8.40
2006,02,21,14,01,8.50
2006,02,21,14,02,8.50
2006,02,21,14,03,8.60
2006,02,21,14,04,8.60
2006,02,21,14,05,8.50
2006,02,21,14,06,8.60
2006,02,21,14,07,8.50
2006,02,21,14,08,8.60
2006,02,21,14,09,8.60
2006,02,21,14,10,8.60
2006,02,21,14,11,8.60
2006,02,21,14,12,8.60
2006,02,21,14,13,8.60
2006,02,21,14,14,8.60
2006,02,21,14,15,8.60
2006,02,21,14,16,8.60
2006,02,21,14,17,8.60
2006,02,21,14,18,8.60
2006,02,21,14,19,8.70
2006,02,21,14,20,8.70
2006,02,21,14,21,8.70
2006,02,21,14,22,8.70
2006,02,21,14,23,8.70
2006,02,21,14,24,8.70
2006,02,21,14,25,8.70
2006,02,21,14,26,8.60
2006,02,21,14,27,8.60
2006,02,21,14,28,8.50
2006,02,21,14,29,8.50
2006,02,21,14,30,8.50
2006,02,21,14,31,8.50
2006,02,21,14,32,8.60
2006,02,21,14,33,8.60
2006,02,21,14,34,8.60
2006,02,21,14,35,8.60
2006,02,21,14,36,8.60
2006,02,21,14,37,8.60
2006,02,21,14,38,8.60
2006,02,21,14,39,8.60
2006,02,21,14,40,8.70
2006,02,21,14,41,8.70
2006,02,21,14,42,8.70
2006,02,21,14,43,8.70
2006,02,21,14,44,8.70
2006,02,21,14,45,8.70
2006,02,21,14,46,8.70
2006,02,21,14,47,8.70
2006,02,21,14,48,8.70
2006,02,21,14,49,8.70
2006,02,21,14,50,8.70
2006,02,21,14,51,8.70
2006,02,21,14,52,8.70
2006,02,21,14,53,8.70
2006,02,21,14,54,8.70
2006,02,21,14,55,8.70
2006,02,21,14,56,8.70
2006,02,21,14,57,8.70
2006,02,21,14,58,8.80
2006,02,21,14,59,8.80
2006,02,21,15,00,8.80
2006,02,21,15,01,8.80
2006,02,21,15,02,8.90
2006,02,21,15,03,8.90
2006,02,21,15,04,9.00
2006,02,21,15,05,9.00
2006,02,21,15,06,9.00
2006,02,21,15,07,9.00
2006,02,21,15,08,9.00
2006,02,21,15,09,8.90
2006,02,21,15,10,8.90
2006,02,21,15,11,8.90
2006,02,21,15,12,8.90
2006,02,21,15,13,8.80
2006,02,21,15,14,8.80
2006,02,21,15,15,8.80
2006,02,21,15,16,8.80
2006,02,21,15,17,8.80
2006,02,21,15,18,8.80
2006,02,21,15,19,8.80
2006,02,21,15,20,8.70
2006,02,21,15,21,8.70
2006,02,21,15,22,8.70
2006,02,21,15,23,8.70
2006,02,21,15,24,8.70
2006,02,21,15,25,8.60
2006,02,21,15,26,8.60
2006,02,21,15,27,8.60
2006,02,21,15,28,8.70
2006,02,21,15,29,8.60
2006,02,21,15,30,8.60
2006,02,21,15,31,8.60
2006,02,21,15,32,8.60
2006,02,21,15,33,8.60
2006,02,21,15,34,8.60
2006,02,21,15,35,8.60
2006,02,21,15,36,8.60
2006,02,21,15,37,8.60
2006,02,21,15,38,8.50
2006,02,21,15,39,8.50
2006,02,21,15,40,8.40
2006,02,21,15,41,8.40
2006,02,21,15,42,8.40
2006,02,21,15,43,8.40
2006,02,21,15,44,8.40
2006,02,21,15,45,8.40
2006,02,21,15,46,8.30
2006,02,21,15,47,8.30
2006,02,21,15,48,8.30
2006,02,21,15,49,8.30
2006,02,21,15,50,8.30
2006,02,21,15,51,8.30
2006,02,21,15,52,8.30
2006,02,21,15,53,8.30
2006,02,21,15,54,8.30
2006,02,21,15,55,8.30
2006,02,21,15,56,8.30
2006,02,21,15,57,8.30
2006,02,21,15,58,8.30
2006,02,21,15,59,8.30
2006,02,21,16,00,8.30
2006,02,21,16,01,8.30
2006,02,21,16,02,8.30
2006,02,21,16,03,8.30
2006,02,21,16,04,8.40
2006,02,21,16,05,8.40
2006,02,21,16,06,8.30
2006,02,21,16,07,8.30
2006,02,21,16,08,8.30
2006,02,21,16,09,8.30
2006,02,21,16,10,8.30
2006,02,21,16,11,8.30
2006,02,21,16,12,8.40
2006,02,21,16,13,8.40
2006,02,21,16,14,8.40
2006,02,21,16,15,8.40
2006,02,21,16,16,8.40
2006,02,21,16,17,8.40
2006,02,21,16,18,8.50
2006,02,21,16,19,8.50
2006,02,21,16,20,8.50
2006,02,21,16,21,8.50
2006,02,21,16,22,8.50
2006,02,21,16,23,8.40
2006,02,21,16,24,8.40
2006,02,21,16,25,8.40
2006,02,21,16,26,8.40
2006,02,21,16,27,8.40
2006,02,21,16,28,8.40
2006,02,21,16,29,8.30
2006,02,21,16,30,8.30
2006,02,21,16,31,8.20
2006,02,21,16,32,8.20
2006,02,21,16,33,8.20
2006,02,21,16,34,8.20
2006,02,21,16,35,8.20
2006,02,21,16,36,8.20
2006,02,21,16,37,8.20
2006,02,21,16,38,8.10
2006,02,21,16,39,8.10
2006,02,21,16,40,8.10
2006,02,21,16,41,8.10
2006,02,21,16,42,8.10
2006,02,21,16,43,8.00
2006,02,21,16,44,8.00
2006,02,21,16,45,8.00
2006,02,21,16,46,8.00
2006,02,21,16,47,8.00
2006,02,21,16,48,7.90
2006,02,21,16,49,7.90
2006,02,21,16,50,7.90
2006,02,21,16,51,7.90
2006,02,21,16,52,7.90
2006,02,21,16,53,7.90
2006,02,21,16,54,7.90
2006,02,21,16,55,7.80
2006,02,21,16,56,7.80
2006,02,21,16,57,7.80
2006,02,21,16,58,7.80
2006,02,21,16,59,7.80
2006,02,21,17,00,7.80
2006,02,21,17,01,7.80
2006,02,21,17,02,7.80
2006,02,21,17,03,7.80
2006,02,21,17,04,7.80
2006,02,21,17,05,7.80
2006,02,21,17,06,7.70
2006,02,21,17,07,7.70
2006,02,21,17,08,7.70
2006,02,21,17,09,7.70
2006,02,21,17,10,7.70
2006,02,21,17,11,7.70
2006,02,21,17,12,7.60
2006,02,21,17,13,7.60
2006,02,21,17,14,7.60
2006,02,21,17,15,7.60
2006,02,21,17,16,7.60
2006,02,21,17,17,7.60
2006,02,21,17,18,7.60
2006,02,21,17,19,7.60
2006,02,21,17,20,7.60
2006,02,21,17,21,7.60
2006,02,21,17,22,7.60
2006,02,21,17,23,7.60
2006,02,21,17,24,7.60
2006,02,21,17,25,7.60
2006,02,21,17,26,7.50
2006,02,21,17,27,7.50
2006,02,21,17,28,7.50
2006,02,21,17,29,7.50
2006,02,21,17,30,7.50
2006,02,21,17,31,7.50
2006,02,21,17,32,7.50
2006,02,21,17,33,7.50
2006,02,21,17,34,7.50
2006,02,21,17,35,7.50
2006,02,21,17,36,7.50
2006,02,21,17,37,7.50
2006,02,21,17,38,7.40
2006,02,21,17,39,7.40
2006,02,21,17,40,7.40
2006,02,21,17,41,7.40
2006,02,21,17,42,7.40
2006,02,21,17,43,7.40
2006,02,21,17,44,7.30
2006,02,21,17,45,7.30
2006,02,21,17,46,7.30
2006,02,21,17,47,7.30
2006,02,21,17,48,7.30
2006,02,21,17,49,7.30
2006,02,21,17,50,7.30
2006,02,21,17,51,7.30
2006,02,21,17,52,7.30